TimeEDT,TemperatureF,Dew PointF,Humidity,Sea Level PressureIn,VisibilityMPH,Wind Direction,Wind SpeedMPH,Gust SpeedMPH,PrecipitationIn,Events,Conditions,WindDirDegrees,DateUTC
12:55 AM,48.9,46.0,90,30.05,10.0,Calm,Calm,-,N/A,,Clear,0,2013-09-26 04:55:00
1:55 AM,48.0,45.0,89,30.06,10.0,Calm,Calm,-,N/A,,Clear,0,2013-09-26 05:55:00
2:55 AM,46.9,44.1,90,30.06,10.0,Calm,Calm,-,N/A,,Clear,0,2013-09-26 06:55:00
3:55 AM,46.9,44.1,90,30.07,10.0,Calm,Calm,-,N/A,,Clear,0,2013-09-26 07:55:00
4:55 AM,44.1,42.1,93,30.09,9.0,Calm,Calm,-,N/A,,Clear,0,2013-09-26 08:55:00
5:55 AM,44.1,42.1,93,30.10,8.0,NW,3.5,-,N/A,,Clear,310,2013-09-26 09:55:00
6:55 AM,44.1,41.0,89,30.12,8.0,Calm,Calm,-,N/A,,Clear,0,2013-09-26 10:55:00
7:55 AM,46.0,43.0,89,30.13,7.0,Calm,Calm,-,N/A,,Clear,0,2013-09-26 11:55:00
8:55 AM,48.9,46.0,90,30.13,10.0,Calm,Calm,-,N/A,,Clear,0,2013-09-26 12:55:00
9:55 AM,54.0,48.9,83,30.14,10.0,East,3.5,-,N/A,,Clear,100,2013-09-26 13:55:00
10:55 AM,60.1,51.1,72,30.14,10.0,SSE,4.6,-,N/A,,Clear,160,2013-09-26 14:55:00
11:55 AM,64.9,48.9,56,30.14,10.0,Variable,3.5,-,N/A,,Clear,0,2013-09-26 15:55:00
12:55 PM,66.9,44.1,44,30.13,10.0,SE,9.2,-,N/A,,Clear,140,2013-09-26 16:55:00
1:55 PM,69.1,46.9,45,30.12,10.0,SSE,6.9,-,N/A,,Clear,150,2013-09-26 17:55:00
2:55 PM,70.0,46.9,44,30.11,10.0,Calm,Calm,-,N/A,,Clear,0,2013-09-26 18:55:00
3:55 PM,71.1,44.1,38,30.11,10.0,SE,6.9,-,N/A,,Clear,140,2013-09-26 19:55:00
4:55 PM,71.1,42.1,35,30.12,10.0,ESE,5.8,-,N/A,,Clear,110,2013-09-26 20:55:00
5:55 PM,70.0,44.1,39,30.12,10.0,ESE,6.9,-,N/A,,Clear,120,2013-09-26 21:55:00
6:55 PM,66.9,48.0,51,30.13,10.0,SE,4.6,-,N/A,,Clear,130,2013-09-26 22:55:00
7:55 PM,62.1,48.0,60,30.14,10.0,SE,4.6,-,N/A,,Clear,140,2013-09-26 23:55:00
8:55 PM,60.1,46.9,62,30.14,10.0,SE,5.8,-,N/A,,Clear,130,2013-09-27 00:55:00
9:55 PM,57.0,46.9,69,30.15,10.0,SE,3.5,-,N/A,,Clear,140,2013-09-27 01:55:00
10:55 PM,55.0,48.9,80,30.15,10.0,East,3.5,-,N/A,,Clear,80,2013-09-27 02:55:00
11:55 PM,53.1,50.0,89,30.15,10.0,East,3.5,-,N/A,,Clear,80,2013-09-27 03:55:00